This demonstration page uses our WeatherBlox Daily Observations layout. Learn more.

36.17497, -115.13722

Hourly Observations for September 26, 2020

Temp ( °F °C ) Dew Point ( °F °C ) Humidity (%) Winds ( mph kmh ) Pressure ( in mb ) Visibility ( mi km ) Precip ( " mm )
12:53 am 00:53 Hazy 77 25 30 -1.1 18 18 NW 6 9 29.87 1012 10 16.0934 0 0
1:53 am 01:53 Hazy 76 24.4 29 -1.7 18 18 ESE 3 6 29.88 1012 10 16.0934 0 0
2:53 am 02:53 Hazy 74 23.3 32 0 21 21 NW 3 6 29.88 1012 10 16.0934 0 0
3:53 am 03:53 Hazy 75 23.9 30 -1.1 19 19 W 5 7 29.87 1011 10 16.0934 0 0
4:53 am 04:53 Hazy 72 22.2 29 -1.7 20 20 WNW 6 9 29.88 1012 10 16.0934 0 0
5:53 am 05:53 Hazy 71 21.7 28 -2.2 20 20 WNW 5 7 29.88 1012 10 16.0934 0 0
6:53 am 06:53 Hazy 67 19.4 28 -2.2 23 23 NNW 8 13 29.9 1013 10 16.0934 0 0
7:53 am 07:53 Hazy 74 23.3 29 -1.7 19 19 NW 6 9 29.91 1013 10 16.0934 0 0
8:53 am 08:53 Hazy 80 26.7 28 -2.2 15 15 Calm 29.92 1013 10 16.0934 0 0
9:53 am 09:53 Hazy 85 29.4 25 -3.9 11 11 SE 3 6 29.92 1013 10 16.0934 0 0
10:53 am 10:53 Hazy 88 31.1 26 -3.3 10 10 Calm 29.92 1013 10 16.0934 0 0
11:53 am 11:53 Hazy 91 32.8 26 -3.3 9 9 Calm 29.91 1013 10 16.0934 0 0
12:53 pm 12:53 Hazy 94 34.4 27 -2.8 9 9 Calm 29.88 1012 10 16.0934 0 0
1:53 pm 13:53 Hazy 97 36.1 28 -2.2 9 9 NNE 5 7 29.83 1010 10 16.0934 0 0
2:53 pm 14:53 Hazy 97 36.1 26 -3.3 8 8 VRB 6 9 29.8 1009 10 16.0934 0 0
3:53 pm 15:53 Hazy 99 37.2 24 -4.4 7 7 SE 3 6 29.78 1008 10 16.0934 0 0
4:53 pm 16:53 Hazy 99 37.2 23 -5 6 6 E 8 13 29.77 1008 10 16.0934 0 0
5:53 pm 17:53 Hazy 97 36.1 26 -3.3 8 8 E 9 15 29.77 1008 10 16.0934 0 0
6:53 pm 18:53 Hazy 92 33.3 28 -2.2 10 10 E 7 11 29.78 1009 10 16.0934 0 0
7:53 pm 19:53 Hazy 90 32.2 29 -1.7 11 11 ENE 8 13 29.78 1009 10 16.0934 0 0
8:53 pm 20:53 Hazy 89 31.7 30 -1.1 12 12 N 6 9 29.79 1009 10 16.0934 0 0
9:53 pm 21:53 Hazy 86 30 30 -1.1 13 13 NW 6 9 29.8 1009 10 16.0934 0 0
10:53 pm 22:53 Hazy 85 29.4 31 -0.6 14 14 W 5 7 29.82 1010 10 16.0934 0 0
11:53 pm 23:53 Hazy 84 28.9 33 0.6 16 16 S 6 9 29.82 1010 10 16.0934 0 0

Powered by AerisWeather